sat.trackr.live / text

‹ back to catalog

STARLINK-35405

NORAD 66440 · 2025-259U

PAYLOAD ACTIVE UNKNOWN

§ Identity

Operator
Country
US
Launch date
2025-11-11
Launch site
AFETR
Launch vehicle
Mass (kg)
RCS (m²)

Purposes: comms

External: N2YO · Heavens-Above · Gunter

§ Orbital elements

Epoch: 2026-09-20T08:38:51.571968Z

Period
94.27 min
Inclination
43.0029°
Eccentricity
0.0001245
Mean motion
15.27580610 rev/d
Perigee alt
482.2 km
Apogee alt
483.9 km
Semi-major
6,861.2 km
B*
3.1479e-4
RAAN
254.9447°
Arg perigee
255.4963°
Mean anomaly
104.5750°
Rev number
4,926

§ Raw data

STARLINK-354051 66440U 25259U   26263.36031912  .00008410  00000+0  31479-3 0  99962 66440  43.0029 254.9447 0001245 255.4963 104.5750 15.27580610 49269

JSON: /api/v1/satellites/66440 · /tle

For live sub-satellite position, see the globe view (requires WebGL).

§ Visibility from observer

Set your observer location to see the next 7 days of passes ≥ 10°. The values pass through the URL so the page stays shareable.

No JS? Fill the form by hand. The geolocation button needs JavaScript.